Retour au catalogue

COSMOS 729

ActifMilitairePO
NORAD 7768·PAYLOAD·🇷🇺 Russia

Lancé Apr 22, 1975 depuis Plesetsk Cosmodrome

Loading…

Prochains Passages (prochaines 24 heures)

TLE

FraisSource: Space-Track

Époque: Sep 14, 2026, 11:32 UTC

1 07768U 75034A   26257.48070575  .00000035  00000-0  21807-4 0  9995
2 07768  82.9606  64.5180 0021639 275.1408 111.5141 13.73649073575298

Suivez COSMOS 729 en temps réel avec AllMySat

Download on the App Store